| time (UTC) | temp C | wind direction | speed KPH | gust KPH | rain 1hr cm | rain 24hr cm | rain mn cm | humidity % | barometer mb |
| 20260503212051 | 12 | 234 | 0.0 | 4.8 | 0.00 | 0.00 | 0.00 | 66 | 1018.1 |
| 20260503211551 | 12 | 234 | 1.6 | 4.8 | 0.00 | 0.00 | 0.00 | 66 | 1018.1 |
| 20260503211050 | 12 | 125 | 0.0 | 4.8 | 0.00 | 0.00 | 0.00 | 66 | 1018.1 |
| 20260503210554 | 12 | 86 | 1.6 | 4.8 | 0.00 | 0.00 | 0.00 | 66 | 1017.9 |
| 20260503210059 | 12 | 117 | 1.6 | 4.8 | 0.00 | 0.00 | 0.00 | 66 | 1017.9 |
| 20260503205550 | 12 | 144 | 1.6 | 3.2 | 0.00 | 0.00 | 0.00 | 66 | 1017.9 |
| 20260503205050 | 12 | 182 | 0.0 | 3.2 | 0.00 | 0.00 | 0.00 | 66 | 1017.8 |
| 20260503204553 | 12 | 182 | 0.0 | 3.2 | 0.00 | 0.00 | 0.00 | 66 | 1017.8 |
| 20260503204051 | 12 | 142 | 0.0 | 3.2 | 0.00 | 0.00 | 0.00 | 66 | 1017.7 |
| 20260503203552 | 12 | 179 | 0.0 | 4.8 | 0.00 | 0.00 | 0.00 | 66 | 1017.7 |
| 20260503203050 | 13 | 143 | 1.6 | 4.8 | 0.00 | 0.00 | 0.00 | 66 | 1017.5 |
| 20260503202549 | 13 | 164 | 0.0 | 1.6 | 0.00 | 0.00 | 0.00 | 65 | 1017.5 |
| 20260503202049 | 13 | 151 | 0.0 | 4.8 | 0.00 | 0.00 | 0.00 | 65 | 1017.5 |
| 20260503201548 | 13 | 173 | 1.6 | 4.8 | 0.00 | 0.00 | 0.00 | 65 | 1017.6 |
| 20260503201048 | 13 | 131 | 0.0 | 3.2 | 0.00 | 0.00 | 0.00 | 64 | 1017.5 |
| 20260503200548 | 13 | 130 | 0.0 | 3.2 | 0.00 | 0.00 | 0.00 | 64 | 1017.4 |
| 20260503200056 | 13 | 115 | 0.0 | 3.2 | 0.00 | 0.00 | 0.00 | 64 | 1017.4 |
| 20260503195548 | 13 | 115 | 0.0 | 1.6 | 0.00 | 0.00 | 0.00 | 64 | 1017.5 |
| 20260503195047 | 13 | 115 | 0.0 | 3.2 | 0.00 | 0.00 | 0.00 | 64 | 1017.4 |
| 20260503194548 | 13 | 115 | 0.0 | 11.3 | 0.00 | 0.00 | 0.00 | 64 | 1017.4 |
| 20260503194048 | 13 | 117 | 1.6 | 11.3 | 0.00 | 0.00 | 0.00 | 63 | 1017.3 |
| 20260503193548 | 14 | 90 | 3.2 | 9.7 | 0.00 | 0.00 | 0.00 | 63 | 1017.4 |
| 20260503193053 | 14 | 148 | 0.0 | 8.0 | 0.00 | 0.00 | 0.00 | 62 | 1017.3 |
| 20260503192547 | 14 | 306 | 0.0 | 4.8 | 0.00 | 0.00 | 0.00 | 62 | 1017.2 |
| 20260503192047 | 15 | 188 | 0.0 | 4.8 | 0.00 | 0.00 | 0.00 | 61 | 1017.2 |
| 20260503191546 | 15 | 175 | 1.6 | 4.8 | 0.00 | 0.00 | 0.00 | 61 | 1017.1 |
| 20260503191048 | 15 | 126 | 0.0 | 6.4 | 0.00 | 0.00 | 0.00 | 60 | 1017.0 |
| 20260503190548 | 15 | 106 | 0.0 | 6.4 | 0.00 | 0.00 | 0.00 | 59 | 1017.0 |
| 20260503190046 | 15 | 90 | 1.6 | 8.0 | 0.00 | 0.00 | 0.00 | 58 | 1016.9 |
| 20260503185549 | 16 | 86 | 3.2 | 8.0 | 0.00 | 0.00 | 0.00 | 58 | 1016.9 |
| 20260503185046 | 16 | 110 | 0.0 | 4.8 | 0.00 | 0.00 | 0.00 | 57 | 1016.8 |
| 20260503184555 | 16 | 103 | 1.6 | 6.4 | 0.00 | 0.00 | 0.00 | 56 | 1016.8 |
| 20260503184049 | 16 | 68 | 0.0 | 6.4 | 0.00 | 0.00 | 0.00 | 55 | 1016.7 |
| 20260503183547 | 17 | 107 | 0.0 | 4.8 | 0.00 | 0.00 | 0.00 | 55 | 1016.7 |
| 20260503183101 | 17 | 104 | 1.6 | 4.8 | 0.00 | 0.00 | 0.00 | 54 | 1016.7 |
| 20260503182545 | 17 | 121 | 0.0 | 4.8 | 0.00 | 0.00 | 0.00 | 54 | 1016.6 |
| 20260503182045 | 17 | 102 | 1.6 | 4.8 | 0.00 | 0.00 | 0.00 | 53 | 1016.7 |
| 20260503181544 | 18 | 114 | 1.6 | 4.8 | 0.00 | 0.00 | 0.00 | 52 | 1016.7 |
| 20260503181044 | 18 | 114 | 1.6 | 4.8 | 0.00 | 0.00 | 0.00 | 51 | 1016.6 |
| 20260503180546 | 19 | 104 | 1.6 | 4.8 | 0.00 | 0.00 | 0.00 | 51 | 1016.6 |
| 20260503180047 | 20 | 60 | 0.0 | 6.4 | 0.00 | 0.00 | 0.00 | 51 | 1016.5 |
| 20260503175543 | 20 | 60 | 0.0 | 8.0 | 0.00 | 0.00 | 0.00 | 50 | 1016.5 |
| 20260503175048 | 20 | 58 | 3.2 | 8.0 | 0.00 | 0.00 | 0.00 | 51 | 1016.5 |
| 20260503174544 | 20 | 70 | 1.6 | 6.4 | 0.00 | 0.00 | 0.00 | 50 | 1016.4 |
| 20260503174043 | 21 | 215 | 0.0 | 3.2 | 0.00 | 0.00 | 0.00 | 49 | 1016.4 |
| 20260503173543 | 21 | 215 | 0.0 | 3.2 | 0.00 | 0.00 | 0.00 | 48 | 1016.4 |
| 20260503173109 | 21 | 216 | 0.0 | 4.8 | 0.00 | 0.00 | 0.00 | 48 | 1016.4 |
| 20260503172545 | 21 | 224 | 0.0 | 4.8 | 0.00 | 0.00 | 0.00 | 46 | 1016.4 |
| 20260503172042 | 22 | 187 | 0.0 | 3.2 | 0.00 | 0.00 | 0.00 | 45 | 1016.4 |
| 20260503171545 | 22 | 187 | 0.0 | 3.2 | 0.00 | 0.00 | 0.00 | 45 | 1016.3 |
| 20260503171041 | 22 | 182 | 0.0 | 4.8 | 0.00 | 0.00 | 0.00 | 44 | 1016.3 |
| 20260503170542 | 22 | 194 | 1.6 | 4.8 | 0.00 | 0.00 | 0.00 | 44 | 1016.4 |
| 20260503150530 | 22 | 227 | 3.2 | 11.3 | 0.00 | 0.00 | 0.00 | 43 | 1017.2 |
| 20260503131019 | 22 | 321 | 3.2 | 16.1 | 0.00 | 0.00 | 0.00 | 46 | 1018.0 |
| 20260503130519 | 22 | 321 | 6.4 | 22.5 | 0.00 | 0.00 | 0.00 | 45 | 1018.1 |
| 20260503110502 | 20 | 290 | 3.2 | 14.5 | 0.00 | 0.00 | 0.00 | 47 | 1018.7 |
| 20260503081523 | 15 | 336 | 3.2 | 8.0 | 0.00 | 0.00 | 0.00 | 60 | 1020.4 |
| 20260503081023 | 15 | 332 | 3.2 | 12.9 | 0.00 | 0.00 | 0.00 | 62 | 1020.5 |
| 20260503080521 | 15 | 360 | 4.8 | 12.9 | 0.00 | 0.00 | 0.00 | 62 | 1020.5 |
| 20260503072512 | 12 | 313 | 1.6 | 4.8 | 0.00 | 0.00 | 0.00 | 66 | 1020.8 |
| 20260503072010 | 12 | 346 | 0.0 | 4.8 | 0.00 | 0.00 | 0.00 | 66 | 1020.9 |
| 20260503071510 | 12 | 9 | 1.6 | 6.4 | 0.00 | 0.00 | 0.00 | 67 | 1020.9 |
| 20260503071007 | 12 | 360 | 1.6 | 6.4 | 0.00 | 0.00 | 0.00 | 66 | 1020.9 |
| 20260503070507 | 11 | 327 | 0.0 | 3.2 | 0.00 | 0.00 | 0.00 | 66 | 1020.9 |
| 20260503055046 | 5 | 279 | 0.0 | 0.0 | 0.00 | 0.00 | 0.00 | 40 | 1020.8 |
| 20260503054545 | 4 | 279 | 0.0 | 0.0 | 0.00 | 0.00 | 0.00 | 43 | 1020.7 |
| 20260503054043 | 4 | 279 | 0.0 | 0.0 | 0.00 | 0.00 | 0.00 | 45 | 1020.7 |
| 20260503053542 | 3 | 279 | 0.0 | 0.0 | 0.00 | 0.00 | 0.00 | 48 | 1020.8 |
| 20260503053042 | 3 | 279 | 0.0 | 0.0 | 0.00 | 0.00 | 0.00 | 50 | 1020.8 |
| 20260503052540 | 3 | 279 | 0.0 | 0.0 | 0.00 | 0.00 | 0.00 | 51 | 1020.8 |
| 20260503052041 | 2 | 279 | 0.0 | 0.0 | 0.00 | 0.00 | 0.00 | 54 | 1020.8 |
| 20260503051538 | 2 | 279 | 0.0 | 0.0 | 0.00 | 0.00 | 0.00 | 55 | 1020.8 |
| 20260503051037 | 2 | 279 | 0.0 | 0.0 | 0.00 | 0.00 | 0.00 | 55 | 1020.8 |
| 20260503050537 | 3 | 279 | 0.0 | 0.0 | 0.00 | 0.00 | 0.00 | 55 | 1020.8 |
| 20260503050036 | 3 | 279 | 0.0 | 0.0 | 0.00 | 0.00 | 0.00 | 55 | 1020.8 |
| 20260503045538 | 3 | 279 | 0.0 | 0.0 | 0.00 | 0.00 | 0.00 | 55 | 1020.8 |
| 20260503045038 | 3 | 279 | 0.0 | 0.0 | 0.00 | 0.00 | 0.00 | 55 | 1020.7 |
| 20260503044534 | 3 | 279 | 0.0 | 0.0 | 0.00 | 0.00 | 0.00 | 55 | 1020.6 |
| 20260503044033 | 3 | 279 | 0.0 | 0.0 | 0.00 | 0.00 | 0.00 | 55 | 1020.6 |
| 20260503043533 | 3 | 279 | 0.0 | 1.6 | 0.00 | 0.00 | 0.00 | 56 | 1020.6 |
| 20260503043038 | 3 | 84 | 0.0 | 1.6 | 0.00 | 0.00 | 0.00 | 56 | 1020.5 |
| 20260503042532 | 3 | 84 | 0.0 | 1.6 | 0.00 | 0.00 | 0.00 | 56 | 1020.5 |
| 20260503042032 | 3 | 84 | 0.0 | 1.6 | 0.00 | 0.00 | 0.00 | 57 | 1020.5 |
| 20260503041532 | 3 | 84 | 0.0 | 1.6 | 0.00 | 0.00 | 0.00 | 57 | 1020.5 |
| 20260503041031 | 3 | 84 | 0.0 | 3.2 | 0.00 | 0.00 | 0.00 | 57 | 1020.4 |
| 20260503040530 | 3 | 84 | 0.0 | 3.2 | 0.00 | 0.00 | 0.00 | 58 | 1020.3 |
| 20260503040034 | 3 | 159 | 0.0 | 1.6 | 0.00 | 0.00 | 0.00 | 59 | 1020.3 |
| 20260503035528 | 3 | 159 | 0.0 | 0.0 | 0.00 | 0.00 | 0.00 | 59 | 1020.2 |
| 20260503035028 | 3 | 159 | 0.0 | 1.6 | 0.00 | 0.00 | 0.00 | 59 | 1020.2 |
| 20260503034538 | 3 | 159 | 0.0 | 1.6 | 0.00 | 0.00 | 0.00 | 59 | 1020.2 |
| 20260503034027 | 3 | 159 | 0.0 | 1.6 | 0.00 | 0.00 | 0.00 | 59 | 1020.2 |
| 20260503033526 | 3 | 159 | 0.0 | 0.0 | 0.00 | 0.00 | 0.00 | 59 | 1020.2 |
| 20260503033031 | 3 | 159 | 0.0 | 0.0 | 0.00 | 0.00 | 0.00 | 59 | 1020.1 |
| 20260503032525 | 3 | 159 | 0.0 | 0.0 | 0.00 | 0.00 | 0.00 | 60 | 1020.1 |
| 20260503032025 | 3 | 159 | 0.0 | 0.0 | 0.00 | 0.00 | 0.00 | 60 | 1020.2 |
| 20260503031524 | 3 | 159 | 0.0 | 0.0 | 0.00 | 0.00 | 0.00 | 61 | 1020.2 |
| 20260503031024 | 3 | 159 | 0.0 | 1.6 | 0.00 | 0.00 | 0.00 | 62 | 1020.3 |
| 20260503030522 | 3 | 159 | 0.0 | 1.6 | 0.00 | 0.00 | 0.00 | 62 | 1020.3 |
| 20260503030022 | 3 | 159 | 0.0 | 1.6 | 0.00 | 0.00 | 0.00 | 63 | 1020.4 |
| 20260503025521 | 3 | 159 | 0.0 | 1.6 | 0.00 | 0.00 | 0.00 | 64 | 1020.4 |
| 20260503025020 | 3 | 172 | 0.0 | 1.6 | 0.00 | 0.00 | 0.00 | 65 | 1020.4 |
| 20260503024519 | 3 | 172 | 0.0 | 1.6 | 0.00 | 0.00 | 0.00 | 65 | 1020.4 |
| 20260503024020 | 3 | 59 | 0.0 | 0.0 | 0.00 | 0.00 | 0.00 | 65 | 1020.4 |
| 20260503023518 | 4 | 55 | 0.0 | 0.0 | 0.00 | 0.00 | 0.00 | 65 | 1020.4 |
| 20260503023017 | 4 | 55 | 0.0 | 0.0 | 0.00 | 0.00 | 0.00 | 65 | 1020.4 |
| 20260503022516 | 4 | 55 | 0.0 | 0.0 | 0.00 | 0.00 | 0.00 | 65 | 1020.4 |
| 20260503022016 | 4 | 55 | 0.0 | 0.0 | 0.00 | 0.00 | 0.00 | 65 | 1020.4 |
| 20260503021515 | 4 | 55 | 0.0 | 0.0 | 0.00 | 0.00 | 0.00 | 65 | 1020.4 |
| 20260503021014 | 4 | 55 | 0.0 | 0.0 | 0.00 | 0.00 | 0.00 | 65 | 1020.4 |
| 20260503020516 | 4 | 55 | 0.0 | 0.0 | 0.00 | 0.00 | 0.00 | 65 | 1020.4 |
| 20260503020013 | 5 | 55 | 0.0 | 0.0 | 0.00 | 0.00 | 0.00 | 65 | 1020.3 |
| 20260503015512 | 5 | 55 | 0.0 | 1.6 | 0.00 | 0.00 | 0.00 | 65 | 1020.3 |
| 20260503015011 | 5 | 55 | 0.0 | 3.2 | 0.00 | 0.00 | 0.00 | 65 | 1020.4 |
| 20260503014516 | 5 | 56 | 0.0 | 3.2 | 0.00 | 0.00 | 0.00 | 66 | 1020.4 |
| 20260503014011 | 5 | 63 | 0.0 | 1.6 | 0.00 | 0.00 | 0.00 | 67 | 1020.4 |
| 20260503013510 | 5 | 63 | 0.0 | 1.6 | 0.00 | 0.00 | 0.00 | 67 | 1020.4 |
| 20260503013009 | 5 | 63 | 0.0 | 1.6 | 0.00 | 0.00 | 0.00 | 67 | 1020.4 |
| 20260503012509 | 5 | 63 | 0.0 | 0.0 | 0.00 | 0.00 | 0.00 | 67 | 1020.5 |
| 20260503012010 | 5 | 63 | 0.0 | 0.0 | 0.00 | 0.00 | 0.00 | 67 | 1020.5 |
| 20260503011508 | 5 | 63 | 0.0 | 1.6 | 0.00 | 0.00 | 0.00 | 67 | 1020.5 |
| 20260503011010 | 5 | 63 | 0.0 | 1.6 | 0.00 | 0.00 | 0.00 | 67 | 1020.4 |
| 20260503010505 | 5 | 63 | 0.0 | 3.2 | 0.00 | 0.00 | 0.00 | 67 | 1020.5 |
| 20260503010005 | 5 | 63 | 0.0 | 3.2 | 0.00 | 0.00 | 0.00 | 67 | 1020.5 |
| 20260503005509 | 5 | 63 | 0.0 | 0.0 | 0.00 | 0.00 | 0.00 | 67 | 1020.5 |
| 20260503005004 | 6 | 63 | 0.0 | 0.0 | 0.00 | 0.00 | 0.00 | 67 | 1020.5 |
| 20260503004502 | 6 | 63 | 0.0 | 1.6 | 0.00 | 0.00 | 0.00 | 67 | 1020.5 |
| 20260503004002 | 6 | 63 | 0.0 | 3.2 | 0.00 | 0.00 | 0.00 | 67 | 1020.6 |
| 20260503003501 | 6 | 63 | 0.0 | 3.2 | 0.00 | 0.00 | 0.00 | 67 | 1020.6 |
| 20260503003001 | 6 | 65 | 0.0 | 4.8 | 0.00 | 0.00 | 0.00 | 67 | 1020.6 |
| 20260503002500 | 6 | 65 | 0.0 | 4.8 | 0.00 | 0.00 | 0.00 | 67 | 1020.7 |
| 20260503002100 | 6 | 86 | 0.0 | 4.8 | 0.00 | 0.00 | 0.00 | 68 | 1020.6 |
| 20260503001601 | 6 | 86 | 0.0 | 4.8 | 0.00 | 0.00 | 0.00 | 68 | 1020.7 |
| 20260503001058 | 6 | 177 | 0.0 | 3.2 | 0.00 | 0.00 | 0.00 | 68 | 1020.7 |
| 20260503000557 | 6 | 186 | 0.0 | 3.2 | 0.00 | 0.00 | 0.00 | 68 | 1020.8 |
| 20260503000058 | 6 | 186 | 0.0 | 6.4 | 0.00 | 0.00 | 0.00 | 68 | 1020.8 |
| 20260502235556 | 6 | 184 | 1.6 | 6.4 | 0.00 | 0.00 | 0.00 | 68 | 1020.8 |
| 20260502235056 | 6 | 178 | 0.0 | 4.8 | 0.00 | 0.00 | 0.00 | 68 | 1020.8 |
| 20260502234556 | 6 | 129 | 1.6 | 8.0 | 0.00 | 0.00 | 0.00 | 68 | 1020.8 |
| 20260502234056 | 6 | 130 | 1.6 | 8.0 | 0.00 | 0.00 | 0.00 | 68 | 1020.9 |
| 20260502233554 | 6 | 59 | 4.8 | 8.0 | 0.00 | 0.00 | 0.00 | 68 | 1021.0 |
| 20260502233059 | 6 | 66 | 0.0 | 3.2 | 0.00 | 0.00 | 0.00 | 69 | 1021.1 |
| 20260502232553 | 6 | 304 | 0.0 | 1.6 | 0.00 | 0.00 | 0.00 | 69 | 1021.1 |
| 20260502232053 | 6 | 304 | 0.0 | 3.2 | 0.00 | 0.00 | 0.00 | 69 | 1021.1 |
| 20260502231602 | 6 | 281 | 0.0 | 3.2 | 0.00 | 0.00 | 0.00 | 69 | 1021.0 |
| 20260502231051 | 6 | 286 | 0.0 | 3.2 | 0.00 | 0.00 | 0.00 | 68 | 1021.0 |
| 20260502230551 | 6 | 99 | 0.0 | 3.2 | 0.00 | 0.00 | 0.00 | 68 | 1021.0 |
| 20260502230050 | 6 | 100 | 0.0 | 6.4 | 0.00 | 0.00 | 0.00 | 68 | 1021.0 |
| 20260502225550 | 7 | 99 | 0.0 | 6.4 | 0.00 | 0.00 | 0.00 | 68 | 1021.0 |
| 20260502225050 | 7 | 64 | 3.2 | 6.4 | 0.00 | 0.00 | 0.00 | 68 | 1021.0 |
| 20260502224547 | 7 | 134 | 0.0 | 1.6 | 0.00 | 0.00 | 0.00 | 68 | 1021.1 |
| 20260502224046 | 7 | 175 | 0.0 | 3.2 | 0.00 | 0.00 | 0.00 | 67 | 1021.0 |
| 20260502223545 | 7 | 175 | 0.0 | 3.2 | 0.00 | 0.00 | 0.00 | 67 | 1020.9 |
| 20260502223045 | 7 | 130 | 0.0 | 0.0 | 0.00 | 0.00 | 0.00 | 67 | 1020.9 |
| 20260502222544 | 7 | 121 | 0.0 | 0.0 | 0.00 | 0.00 | 0.00 | 67 | 1020.8 |
| 20260502222046 | 7 | 121 | 0.0 | 0.0 | 0.00 | 0.00 | 0.00 | 67 | 1020.9 |
| 20260502221543 | 7 | 121 | 0.0 | 0.0 | 0.00 | 0.00 | 0.00 | 66 | 1020.9 |
| 20260502221043 | 8 | 121 | 0.0 | 0.0 | 0.00 | 0.00 | 0.00 | 66 | 1020.9 |
| 20260502220540 | 8 | 121 | 0.0 | 0.0 | 0.00 | 0.00 | 0.00 | 66 | 1020.9 |
| 20260502220044 | 8 | 121 | 0.0 | 0.0 | 0.00 | 0.00 | 0.00 | 65 | 1020.8 |
| 20260502215540 | 8 | 121 | 0.0 | 0.0 | 0.00 | 0.00 | 0.00 | 66 | 1020.8 |
| 20260502215039 | 8 | 121 | 0.0 | 1.6 | 0.00 | 0.00 | 0.00 | 65 | 1020.8 |
| 20260502214539 | 8 | 121 | 0.0 | 3.2 | 0.00 | 0.00 | 0.00 | 65 | 1020.8 |
| 20260502214038 | 8 | 121 | 0.0 | 3.2 | 0.00 | 0.00 | 0.00 | 65 | 1020.8 |
| 20260502213538 | 8 | 127 | 0.0 | 1.6 | 0.00 | 0.00 | 0.00 | 65 | 1020.9 |
| 20260502213038 | 8 | 95 | 0.0 | 3.2 | 0.00 | 0.00 | 0.00 | 65 | 1020.8 |
| 20260502212538 | 8 | 95 | 0.0 | 3.2 | 0.00 | 0.00 | 0.00 | 65 | 1020.9 |